ハートレー第2彗星

103P/Hartley 2 (1991)

English version
Home page
Updated on July 16, 2006

---------------------------------------------------------------------

・ プロフィール

符号 103P/1991 N1
検出日 1991年7月9日
検出光度 11等
検出者 T. V. Kryachko (Majdanak)

・ 軌道要素

                    Epoch = 1991 Sept.21.0 ET
     T = 1991 Sept.11.6542 ET         Peri. = 174.9337
     e = 0.719489                     Node  = 226.0539  1950.0
     q = 0.953285 AU                  Incl. =   9.2561
       a =  3.398382 AU    n = 0.1573243    P =   6.265 years

・ 光度変化

        m1 =  8.2 + 5 logΔ + 20.0 log r(t - 20)  [   ,120]  (              〜1992年 1月 9日)
        m1 = 10.0 + 5 logΔ + 10.0 log r          [120,   ]  (1992年 1月 9日〜              )

---------------------------------------------------------------------

軌道要素は Dr. Green の計算によるもので、 IAUC 5324 に掲載されたものです。
光度グラフはComet for Windowsで作成したものです。

---------------------------------------------------------------------

Copyright(C) Seiichi Yoshida (comet@aerith.net). All rights reserved.